This demonstration page uses our WeatherBlox Daily Observations layout. Learn more.

Left ArrowRight Arrow

Hourly Observations for April 10, 2021

Temp ( °F °C ) Dew Point ( °F °C ) Humidity (%) Winds ( mph kmh ) Pressure ( in mb ) Visibility ( mi km ) Precip ( " mm )
12:56 am 00:56 Cloudy with Light Rain 41 5 39 3.9 93 93 NNW 18 30 29.93 1014 10 16 0.03 0.76
1:56 am 01:56 Cloudy with Light Rain 42 5.6 38 3.3 85 85 N 21 33 29.93 1014 10 16 0.01 0.25
2:56 am 02:56 Cloudy with Light Rain 41 5 38 3.3 89 89 NW 10 17 29.92 1013 10 16 0.00 0.00
3:56 am 03:56 Clear 39 3.9 36 2.2 89 89 WNW 10 17 29.91 1013 10 16 0.00 0.00
4:56 am 04:56 Clear 39 3.9 34 1.1 82 82 NW 13 20 29.90 1013 10 16 0.00 0.00
5:56 am 05:56 Clear 37 2.8 30 -1.1 76 76 NW 12 19 29.90 1013 10 16 0.00 0.00
6:56 am 06:56 Clear 35 1.7 29 -1.7 78 78 NW 9 15 29.93 1013 10 16 0.00 0.00
7:56 am 07:56 Sunny 35 1.7 29 -1.7 78 78 NW 8 13 29.94 1014 10 16 0.00 0.00
8:56 am 08:56 Sunny 38 3.3 30 -1.1 73 73 NW 13 20 29.95 1014 10 16 0.00 0.00
9:56 am 09:56 Sunny 43 6.1 31 -0.6 63 63 NNW 12 19 29.95 1014 10 16 0.00 0.00
10:56 am 10:56 Sunny 49 9.4 33 0.6 55 55 NNW 12 19 29.93 1014 10 16 0.00 0.00
11:56 am 11:56 Sunny 52 11.1 32 0 47 47 NW 12 19 29.92 1013 10 16 0.00 0.00
12:56 pm 12:56 Sunny 55 12.8 26 -3.3 33 33 NNW 12 19 29.88 1012 10 16 0.00 0.00
1:56 pm 13:56 Sunny 56 13.3 20 -6.7 24 24 WNW 12 19 29.85 1011 10 16 0.00 0.00
2:56 pm 14:56 Sunny 57 13.9 18 -7.8 22 22 WNW 10 17 29.83 1010 10 16 0.00 0.00
3:56 pm 15:56 Sunny 59 15 19 -7.2 21 21 NW 10 17 29.80 1009 10 16 0.00 0.00
4:56 pm 16:56 Sunny 59 15 21 -6.1 23 23 NNW 10 17 29.77 1008 10 16 0.00 0.00
5:56 pm 17:56 Sunny 60 15.6 21 -6.1 22 22 W 3 6 29.74 1007 10 16 0.00 0.00
6:56 pm 18:56 Sunny 60 15.6 22 -5.6 23 23 NW 6 9 29.72 1007 10 16 0.00 0.00
7:56 pm 19:56 Sunny 56 13.3 27 -2.8 33 33 Calm 29.72 1006 10 16 0.00 0.00
8:56 pm 20:56 Clear 48 8.9 33 0.6 56 56 ESE 7 11 29.71 1006 10 16 0.00 0.00
9:56 pm 21:56 Clear 44 6.7 30 -1.1 58 58 SSE 8 13 29.71 1006 10 16 0.00 0.00
10:56 pm 22:56 Clear 42 5.6 30 -1.1 62 62 SSE 6 9 29.69 1005 10 16 0.00 0.00
11:56 pm 23:56 Clear 42 5.6 29 -1.7 60 60 SSE 5 7 29.67 1005 10 16 0.00 0.00

Powered by AerisWeather